Погода в Зальбах-Хинтерглеме

Австрия     47°23′23″N   12°38′22″E
темп.,
°C
ветер,
м/с
пор.,
м/с
влажн.,
%
обл.,
%
осадки,
мм/ч
давл.,
гПа
погр.,
м
8 августа, пн
пн823:00+12ссв0097100 0.2 102120
02:00+12ссз0097100 0.7 102124
05:00+11зсз1197100 0.2 102113
08:00+12ссз1194100 0.2 1022127
11:00+13с228189 0.3 1022480
14:00+14ссв117888 0.6 1022452
17:00+15с227914 0.1 1023462
20:00+13ссв229035 0.1 102340
9 августа, вт
вт923:00+11ююв11926 0.0 102510
02:00+9юв11961 0.0 102511
05:00+8юв11965 0.0 102511
08:00+12юв11840 0.0 1024127
11:00+18с22520 0.0 10231152
14:00+20с32461 0.0 10221678
17:00+19с32510 0.0 10231246
20:00+13ссв22800 0.0 102523
10 августа, ср
ср1023:00+9юв11840 0.0 102610
02:00+8юв22880 0.0 102617
05:00+8юв22932 0.0 102520
08:00+12юв11770 0.0 1024140
11:00+19ссв114835 0.0 10221207
14:00+21с2244100 0.0 10211647
17:00+20с325151 0.0 10211258
20:00+13св218642 0.0 102217
11 августа, чт
чт1123:00+10юв22935 0.0 102319
02:00+9юв22930 0.0 102331
05:00+9ююв229114 0.0 102228
08:00+13юв117335 0.0 1021107
11:00+20с115212 0.0 1020981
14:00+21с3245100 0.0 10191802
17:00+20с3352100 0.0 10181347
20:00+13ссв2285100 0.1 102025
12 августа, пт
пт1223:00+10вюв11900 0.0 102110
02:00+9ююв21915 0.0 102013
05:00+8ююв11910 0.0 101911
08:00+12св017349 0.0 1019123
11:00+16с215294 0.0 10181309
14:00+19с33405 0.1 10162295
17:00+18с224214 0.2 10162081
20:00+12св11760 0.3 101811